Wind_Speed
7 7 7 6 7 7 7 7 7 7 8 8 9 9 9 9 10 10 12 12 13 13 13 13 13 13 12 13 14 14 14 15 16 17 18 18 18 18 18 18 18 18 18
7 6 7 6 7 7 7 8 8 8 8 8 9 9 9 9 9 10 11 12 12 13 13 12 12 12 12 12 13 14 13 13 14 16 16 17 17 17 17 17 17 16 17
6 7 6 6 6 6 7 7 8 8 8 9 9 8 8 9 10 11 11 11 12 12 12 11 11 12 12 12 12 13 13 14 14 14 14 16 16 17 16 16 16 16 16
6 7 6 5 6 6 6 6 6 7 8 8 8 8 9 9 10 11 11 11 11 11 11 11 11 12 12 12 12 12 12 13 12 12 12 14 15 15 16 16 16 16 16
5 5 6 5 6 6 6 6 6 7 8 8 9 9 9 9 9 10 10 10 10 10 10 11 11 11 11 11 11 12 13 12 12 12 12 13 14 15 16 15 16 16 16
4 4 5 5 5 6 6 6 6 6 7 8 9 9 9 9 8 8 8 9 9 9 9 9 9 9 10 11 11 11 12 11 11 11 12 12 13 14 14 15 17 17 17
4 4 4 5 5 6 6 6 6 6 6 7 8 8 9 8 8 8 8 8 9 9 9 8 8 9 9 10 10 10 10 11 11 12 11 12 13 13 14 15 16 17 17
4 4 5 5 5 6 6 6 6 6 7 6 7 8 8 8 8 7 7 7 8 8 9 8 8 8 9 9 10 9 9 10 10 11 11 12 12 13 14 14 15 16 16
5 5 5 5 5 5 5 5 6 6 7 7 7 7 7 6 6 6 6 7 7 7 8 8 8 8 8 8 9 10 10 10 10 11 11 11 12 13 14 15 15 15 16
6 6 6 6 6 5 5 6 6 6 7 7 7 6 6 6 6 5 6 6 7 7 8 8 8 8 8 8 9 9 10 10 10 10 11 11 11 12 13 14 15 15 15
6 6 6 6 6 6 6 7 7 7 6 6 7 6 6 6 6 5 6 6 6 7 8 8 8 8 8 9 9 9 10 10 10 10 10 11 11 12 12 13 14 14 15
7 7 7 7 7 7 8 8 8 7 7 6 6 6 7 6 6 6 6 6 6 7 7 8 8 8 8 9 10 10 11 11 11 11 11 11 11 12 11 12 13 14 15
7 7 7 7 8 8 8 8 8 7 7 7 7 7 8 8 8 7 7 7 7 8 8 8 8 9 9 10 10 10 11 12 11 11 11 11 12 12 13 14 14 14 15
9 9 9 8 8 9 8 8 8 8 8 8 8 8 8 8 8 8 9 9 9 9 9 9 9 9 10 10 10 10 10 11 12 12 12 12 12 12 13 14 14 15 16
10 10 10 9 9 9 9 9 9 9 9 10 10 10 10 9 9 10 10 10 10 10 11 11 10 11 11 12 11 11 12 12 13 13 13 13 14 14 14 15 15 16 17
10 10 10 10 9 9 10 10 10 10 10 11 11 12 12 11 11 11 11 11 11 12 12 12 12 12 12 13 13 13 13 13 14 14 15 15 15 16 16 17 17 18 19
10 10 10 11 11 11 11 11 12 12 12 12 13 13 13 13 12 12 13 12 12 12 13 13 13 13 13 13 13 14 14 15 15 16 16 17 17 18 18 19 19 20 21
10 11 11 12 12 13 13 13 13 14 13 13 13 14 14 14 13 13 13 13 13 13 13 13 13 14 14 14 14 15 16 16 17 18 18 18 19 19 20 20 21 21 22
11 11 11 12 12 13 13 14 14 15 15 15 15 15 15 15 15 15 14 14 15 15 15 15 15 16 16 16 16 16 17 17 18 19 19 20 20 21 22 22 22 22 23
11 12 12 12 12 13 13 14 15 15 15 15 15 15 16 16 16 16 16 16 16 16 16 16 16 17 18 18 19 19 19 19 19 20 20 21 21 22 22 23 24 24 24
12 12 13 13 13 14 14 14 15 16 16 16 16 16 16 17 17 17 17 17 17 17 18 17 17 18 19 20 20 21 21 21 21 22 22 22 23 23 23 24 25 25 25
14 14 14 14 15 15 15 15 16 16 17 17 17 17 17 18 18 19 18 18 18 19 19 19 20 20 20 21 21 22 22 22 22 22 23 23 23 24 24 24 25 25 26
16 16 16 16 16 16 16 16 16 17 17 18 18 18 18 19 20 19 19 19 19 20 20 20 21 21 21 21 22 22 22 23 23 23 23 23 24 24 25 25 25 26 26
18 18 18 17 17 17 17 17 18 19 19 18 18 19 19 20 20 20 20 21 21 21 21 22 22 22 22 23 23 23 23 23 24 24 24 24 24 25 25 25 26 26 26
19 19 19 18 18 18 19 20 20 20 20 20 20 21 21 22 21 22 22 22 23 23 23 23 23 23 23 23 23 23 24 24 24 24 24 24 24 25 25 26 26 27 28
20 20 19 18 19 19 20 21 21 21 21 22 22 22 23 23 23 23 23 23 23 23 23 24 24 25 25 25 25 25 25 24 24 24 24 24 25 25 26 26 27 28 28
Wind_Direction
251 248 246 251 253 254 261 260 252 255 258 260 263 265 266 268 270 269 269 269 269 267 267 264 261 261 262 263 262 264 265 264 262 261 258 255 254 254 255 256 260 261 261
247 246 250 253 251 252 254 254 253 259 259 266 268 265 265 270 272 273 273 272 270 268 265 263 263 261 263 266 265 265 266 266 264 263 259 252 251 254 256 257 260 262 262
251 253 252 252 251 253 252 252 253 257 262 266 265 263 267 272 271 273 275 273 272 271 266 266 267 268 266 269 268 267 268 266 266 263 259 254 253 254 256 256 258 261 262
258 260 259 254 257 261 263 261 261 262 263 264 266 270 273 276 275 274 276 275 272 269 267 267 266 266 267 268 269 270 271 268 266 262 259 256 253 253 254 255 258 261 264
260 263 262 263 269 270 271 270 269 272 270 269 272 276 277 280 283 279 276 275 271 270 268 267 267 267 265 264 268 272 272 271 268 264 262 260 259 258 258 260 260 263 267
266 265 263 271 278 281 281 283 280 281 279 278 278 280 282 284 286 285 279 275 273 271 269 272 272 269 266 267 271 272 273 271 269 266 264 263 262 261 263 264 264 265 268
273 271 261 269 275 281 284 285 284 281 281 282 283 283 283 284 283 283 277 271 270 268 266 267 268 270 270 268 270 273 273 272 271 269 270 266 263 264 265 265 265 267 269
272 273 272 273 277 281 284 285 287 284 285 287 288 286 286 286 281 280 278 271 269 268 265 268 270 272 273 270 270 269 271 274 275 276 272 269 268 266 265 266 268 269 269
271 270 271 274 277 282 287 286 288 291 294 290 289 288 287 283 282 280 278 273 271 269 270 271 270 271 270 272 277 271 269 272 275 275 276 276 275 272 272 270 271 270 270
276 269 269 270 272 278 285 287 288 290 294 292 290 288 287 283 275 278 279 277 274 270 273 275 276 274 274 276 276 272 270 272 273 276 278 277 282 284 277 270 271 274 276
276 272 270 268 270 275 280 286 288 285 288 289 293 293 292 288 273 274 276 275 275 275 275 277 280 280 283 282 282 283 284 282 283 286 286 286 288 288 284 279 277 276 277
275 267 268 268 271 276 280 284 286 284 281 282 288 292 293 286 280 279 277 274 276 280 281 279 279 281 283 285 287 288 287 289 288 287 288 288 291 293 291 285 282 282 282
278 271 270 270 271 275 276 278 281 280 278 279 282 288 289 285 276 276 273 275 277 278 282 283 281 280 282 284 285 285 288 290 289 290 290 288 288 289 291 290 288 287 288
277 274 270 268 267 268 271 273 277 276 273 273 275 280 281 279 277 273 273 273 274 278 279 280 283 284 285 287 288 289 292 293 293 294 292 290 291 291 290 289 290 290 290
279 274 270 266 264 268 270 269 274 276 275 274 276 278 276 275 275 275 271 268 271 274 276 277 280 283 284 286 287 288 291 293 294 294 294 291 291 293 293 292 292 292 292
277 271 266 265 269 270 270 270 271 274 277 276 276 279 281 280 277 278 276 271 268 271 276 278 279 280 283 284 285 286 288 291 294 295 296 294 293 293 293 293 292 292 293
274 270 268 267 269 271 272 272 272 274 276 279 279 278 281 281 278 275 276 278 274 273 275 278 280 279 281 280 282 285 288 289 292 293 294 293 293 292 292 293 293 292 292
275 272 270 267 268 270 272 273 274 273 275 278 278 278 280 279 280 277 277 279 279 277 277 279 281 282 283 282 282 285 288 289 290 292 292 293 293 293 292 292 292 292 293
276 274 274 271 270 270 272 274 275 275 275 278 280 279 279 279 277 278 278 278 277 276 277 279 280 282 284 285 286 287 288 290 291 292 293 293 293 293 293 292 293 293 293
279 276 274 272 270 269 271 274 275 275 275 277 280 280 279 278 277 276 277 278 277 276 276 278 279 282 283 282 284 286 288 289 291 293 294 294 294 294 293 292 293 293 293
279 277 276 275 271 270 271 273 275 275 276 277 278 279 279 278 277 276 275 276 277 278 278 278 279 281 281 282 283 285 287 289 289 291 292 293 294 294 294 293 293 293 293
279 278 277 277 274 273 273 273 274 275 276 277 278 279 279 277 279 277 276 277 278 279 281 282 282 282 282 283 285 287 288 289 288 289 290 293 295 294 294 294 294 295 297
281 279 278 276 275 275 275 274 272 273 275 277 278 278 278 279 280 278 276 276 277 278 280 283 283 284 284 285 287 288 288 289 289 289 289 291 293 295 294 294 294 295 296
281 278 274 274 274 275 275 274 273 272 274 276 277 277 277 280 282 279 276 275 276 277 279 281 283 284 285 286 287 287 287 288 290 289 289 290 292 294 296 296 295 296 297
281 279 275 273 274 277 275 275 276 275 276 276 277 277 277 279 280 279 277 277 276 276 277 278 281 282 282 285 286 287 287 289 290 290 289 289 290 294 297 297 298 297 297
282 281 278 274 274 275 276 277 277 276 276 276 277 277 278 278 279 278 277 276 276 276 277 278 280 282 281 283 286 288 288 289 288 288 288 289 291 293 295 296 297 298 298
Height
5868 5868 5868 5868 5868 5868 5868 5868 5868 5868 5868 5868 5867 5867 5867 5866 5866 5866 5865 5865 5865 5864 5864 5863 5863 5863 5862 5862 5862 5861 5861 5860 5859 5859 5858 5859 5860 5861 5862 5863 5863 5864 5864
5867 5867 5867 5867 5866 5866 5867 5867 5866 5866 5866 5866 5865 5865 5864 5864 5864 5863 5863 5862 5862 5861 5861 5860 5860 5860 5860 5859 5859 5858 5858 5857 5856 5853 5852 5853 5856 5857 5858 5859 5860 5860 5860
5865 5865 5865 5865 5865 5865 5865 5865 5865 5864 5864 5864 5863 5863 5862 5862 5862 5861 5860 5860 5859 5858 5858 5858 5858 5857 5857 5856 5856 5855 5855 5854 5852 5849 5848 5849 5852 5854 5855 5855 5856 5856 5856
5864 5864 5864 5864 5864 5863 5863 5863 5863 5863 5862 5862 5861 5861 5860 5860 5859 5858 5858 5857 5856 5856 5856 5855 5855 5855 5854 5854 5853 5853 5852 5851 5849 5847 5847 5848 5849 5850 5851 5851 5852 5852 5852
5863 5863 5863 5863 5862 5862 5862 5862 5862 5861 5861 5860 5860 5859 5858 5858 5857 5856 5856 5855 5854 5854 5854 5853 5853 5852 5852 5851 5851 5850 5850 5849 5848 5847 5847 5847 5847 5847 5848 5848 5848 5848 5849
5862 5862 5862 5861 5861 5861 5861 5860 5860 5860 5859 5858 5858 5857 5857 5856 5855 5855 5854 5853 5853 5852 5852 5851 5851 5850 5850 5849 5849 5848 5847 5847 5846 5846 5845 5845 5845 5845 5845 5845 5845 5845 5845
5861 5861 5861 5861 5860 5860 5860 5859 5858 5858 5857 5857 5856 5856 5855 5854 5853 5853 5852 5851 5851 5851 5850 5849 5849 5848 5847 5847 5846 5846 5845 5845 5844 5843 5843 5842 5842 5842 5841 5841 5841 5841 5841
5860 5860 5859 5859 5859 5859 5858 5858 5857 5856 5856 5855 5855 5854 5854 5853 5852 5851 5851 5850 5849 5849 5848 5847 5847 5846 5845 5845 5844 5843 5843 5842 5841 5841 5840 5839 5839 5838 5837 5837 5837 5837 5837
5859 5858 5858 5858 5858 5858 5857 5856 5856 5855 5855 5854 5853 5853 5852 5851 5850 5850 5849 5848 5848 5847 5846 5846 5845 5844 5843 5843 5842 5841 5841 5840 5839 5838 5837 5836 5835 5834 5833 5833 5833 5832 5832
5857 5857 5856 5856 5856 5856 5856 5855 5855 5854 5853 5852 5852 5851 5850 5849 5849 5848 5847 5846 5846 5845 5845 5844 5843 5842 5841 5841 5840 5839 5839 5838 5837 5836 5835 5834 5832 5830 5828 5828 5829 5829 5829
5855 5855 5854 5854 5854 5854 5854 5853 5853 5852 5851 5851 5850 5849 5848 5848 5847 5847 5846 5845 5844 5844 5843 5842 5841 5840 5839 5839 5838 5837 5836 5836 5834 5833 5832 5831 5830 5828 5826 5826 5826 5826 5826
5853 5852 5852 5852 5852 5852 5852 5851 5851 5850 5850 5849 5848 5848 5847 5846 5845 5845 5844 5843 5843 5842 5841 5840 5839 5838 5838 5837 5836 5835 5834 5833 5832 5831 5830 5829 5828 5826 5825 5824 5823 5823 5823
5850 5850 5850 5850 5850 5850 5849 5849 5849 5848 5848 5847 5847 5846 5845 5844 5844 5843 5842 5842 5841 5840 5839 5838 5837 5836 5836 5835 5834 5833 5832 5831 5829 5828 5827 5826 5825 5824 5823 5822 5821 5820 5820
5848 5848 5847 5847 5847 5847 5847 5847 5846 5846 5845 5845 5844 5844 5843 5842 5841 5841 5840 5839 5839 5838 5837 5836 5835 5834 5833 5832 5832 5830 5829 5828 5827 5826 5824 5823 5822 5821 5820 5819 5818 5817 5816
5845 5845 5844 5845 5845 5845 5844 5844 5844 5843 5843 5842 5842 5841 5840 5840 5839 5838 5837 5837 5836 5836 5835 5834 5833 5832 5831 5830 5829 5828 5827 5825 5824 5823 5821 5820 5819 5818 5817 5815 5814 5813 5812
5842 5842 5842 5842 5842 5842 5842 5841 5841 5841 5840 5840 5839 5838 5838 5837 5836 5835 5834 5834 5833 5833 5832 5831 5830 5829 5828 5827 5826 5824 5823 5822 5821 5820 5818 5817 5815 5814 5813 5811 5810 5809 5807
5839 5838 5839 5839 5839 5839 5839 5838 5838 5838 5837 5837 5836 5835 5835 5834 5833 5832 5831 5830 5830 5829 5828 5827 5826 5825 5824 5823 5822 5821 5820 5819 5817 5816 5814 5813 5811 5810 5808 5807 5805 5804 5802
5835 5835 5835 5835 5835 5835 5835 5835 5835 5834 5834 5833 5832 5832 5831 5830 5829 5828 5828 5827 5826 5825 5825 5824 5823 5821 5820 5819 5818 5817 5816 5814 5813 5812 5810 5808 5807 5805 5804 5802 5800 5798 5797
5832 5831 5831 5831 5831 5831 5831 5831 5831 5830 5830 5829 5829 5828 5827 5826 5826 5825 5824 5823 5822 5821 5820 5819 5819 5817 5816 5815 5814 5813 5811 5810 5808 5807 5805 5803 5802 5800 5798 5796 5794 5792 5790
5828 5827 5827 5827 5827 5827 5827 5827 5827 5826 5826 5825 5824 5824 5823 5822 5821 5820 5819 5819 5818 5816 5815 5815 5814 5813 5811 5810 5809 5808 5806 5805 5803 5801 5799 5798 5796 5794 5792 5790 5788 5786 5784
5824 5823 5823 5823 5822 5823 5823 5822 5822 5821 5821 5820 5820 5819 5818 5817 5816 5815 5814 5813 5812 5811 5810 5810 5808 5807 5806 5804 5803 5801 5800 5798 5797 5795 5793 5792 5790 5788 5785 5783 5781 5779 5777
5820 5819 5818 5818 5818 5818 5817 5817 5817 5816 5816 5815 5814 5814 5813 5812 5811 5810 5809 5808 5807 5806 5805 5804 5802 5801 5800 5798 5796 5795 5793 5792 5791 5789 5787 5785 5783 5781 5778 5776 5774 5772 5769
5815 5814 5813 5812 5812 5812 5812 5811 5811 5811 5810 5810 5809 5808 5807 5806 5805 5804 5803 5802 5801 5799 5798 5797 5796 5794 5793 5791 5790 5788 5786 5784 5783 5781 5780 5778 5776 5774 5771 5769 5767 5764 5762
5809 5808 5807 5806 5806 5806 5806 5805 5805 5804 5804 5804 5803 5802 5801 5800 5799 5798 5797 5795 5794 5793 5792 5790 5789 5788 5786 5784 5783 5781 5779 5777 5776 5774 5772 5771 5769 5767 5764 5762 5759 5757 5754
5803 5802 5801 5800 5800 5800 5799 5799 5798 5798 5798 5797 5797 5796 5795 5794 5792 5791 5790 5789 5787 5786 5785 5783 5782 5781 5779 5777 5775 5774 5772 5770 5769 5767 5764 5763 5761 5759 5757 5754 5751 5749 5746
5797 5795 5795 5794 5794 5793 5793 5792 5792 5791 5791 5790 5790 5789 5787 5786 5785 5784 5782 5781 5780 5778 5777 5776 5775 5773 5772 5770 5768 5766 5765 5763 5761 5759 5757 5755 5754 5751 5750 5747 5744 5741 5738